Juliana Airport, Sint Maarten

9:48 PM AST on May 22, 2017 (GMT -0400)
Princess Juliana International

Weather History for TNCM - March, 2013

Change the Weather History Date:

Monday, March 25, 2013

  Actual Average Record
Temperature  
Mean Temperature 80 °F -  
Max Temperature 84 °F 83 °F 86 °F (2003)
Min Temperature 77 °F 74 °F 71 °F (2008)
Cooling Degree Days 16    
Growing Degree Days 30 (Base 50)    
Moisture  
Dew Point 70 °F    
Average Humidity 71    
Maximum Humidity 78    
Minimum Humidity 55    
Precipitation  
Precipitation 0.00 in 0.08 in - ()
Sea Level Pressure  
Sea Level Pressure 29.97 in    
Wind  
Wind Speed 9 mph ()    
Max Wind Speed 15 mph    
Max Gust Speed -    
Visibility 6.2 miles    
Events      
Averages and records for this station are not official NWS values.
T = Trace of Precipitation, MM = Missing Value Source: Averaged Metar Reports

Daily Weather History Graph

Daily Weather History Graph

Search for Another Location

Airport or City:

Trip Planner

Search our weather history database for the weather conditions in past years. The results will help you decide how hot, cold, wet, or windy it might be!

Date:

Astronomy

Mar. 25, 2013 Rise Set
Actual Time 6:12 AM AST 6:24 PM AST
Civil Twilight 5:50 AM AST 6:46 PM AST
Nautical Twilight 5:25 AM AST 7:11 PM AST
Astronomical Twilight 4:59 AM AST 7:37 PM AST
Moon 4:59 PM AST (3/25) 4:40 AM AST (3/25)
Length of Visible Light 12h 55m
Length of Day
12h 12m
Waxing Gibbous, 96% of the Moon is Illuminated
Mar 25
Waxing Gibbous
Mar 27
Full
Apr 3
Last Quarter
Apr 10
New
Apr 18
First Quarter

Hourly Weather History & Observations

Time (AST) Temp. Heat Index Dew Point Humidity Pressure Visibility Wind Dir Wind Speed Gust Speed Precip Events Conditions
12:00 AM 78.8 °F - 69.8 °F 74% 29.95 in 6.2 mi ESE 10.4 mph - N/A   Scattered Clouds
1:00 AM 78.8 °F - 69.8 °F 74% 29.92 in 6.2 mi ESE 10.4 mph - N/A   Scattered Clouds
2:00 AM - - - %  in 28 mi ESE 9.2 mph - -  
2:00 AM 77.0 °F - 68.0 °F 74% 29.92 in 6.2 mi ESE 9.2 mph - N/A   Scattered Clouds
3:00 AM 77.0 °F - 68.0 °F 74% 29.92 in 6.2 mi ESE 9.2 mph - N/A   Scattered Clouds
4:00 AM 77.0 °F - 68.0 °F 74% 29.92 in 6.2 mi ESE 10.4 mph - N/A   Scattered Clouds
5:00 AM 78 °F - 70 °F 69% 29.93 in 28 mi ESE 11.5 mph - -   Scattered Clouds
5:00 AM 77.0 °F - 69.8 °F 78% 29.92 in 6.2 mi ESE 11.5 mph - N/A   Partly Cloudy
6:00 AM 77.0 °F - 68.0 °F 74% 29.92 in 6.2 mi ESE 11.5 mph - N/A   Partly Cloudy
7:00 AM 78.8 °F - 69.8 °F 74% 29.95 in 6.2 mi ESE 9.2 mph - N/A   Scattered Clouds
8:00 AM 80 °F - 69 °F 62% 29.99 in 28 mi ESE 9.2 mph - -   Scattered Clouds
8:00 AM 80.6 °F 83.9 °F 69.8 °F 70% 29.98 in 6.2 mi ESE 8.1 mph - N/A   Partly Cloudy
9:00 AM 80.6 °F 83.9 °F 69.8 °F 70% 29.98 in 6.2 mi East 12.7 mph - N/A   Partly Cloudy
10:00 AM 80.6 °F 83.9 °F 69.8 °F 70% 30.01 in 6.2 mi ESE 10.4 mph - N/A   Scattered Clouds
11:00 AM 83 °F - 69 °F 55% 30.02 in 28 mi ESE 10.4 mph - -   Scattered Clouds
11:00 AM 82.4 °F 85.4 °F 68.0 °F 62% 30.01 in 6.2 mi ESE 11.5 mph - N/A   Partly Cloudy
12:00 PM 84.2 °F 88.4 °F 69.8 °F 62% 30.01 in 6.2 mi ESE 9.2 mph - N/A   Scattered Clouds
1:00 PM 82.4 °F 87.2 °F 71.6 °F 70% 29.98 in 6.2 mi ESE 8.1 mph - N/A   Mostly Cloudy
2:00 PM 82 °F - 71 °F 62% 29.95 in 31 mi ESE 10.4 mph - -   Partly Cloudy
2:00 PM 82.4 °F 87.2 °F 71.6 °F 70% 29.95 in 6.2 mi ESE 10.4 mph - N/A   Scattered Clouds
4:00 PM 82.4 °F 87.2 °F 71.6 °F 70% 29.95 in 6.2 mi SE 10.4 mph - N/A   Mostly Cloudy
5:00 PM 82 °F - 72 °F 65% 29.96 in 28 mi SE 10.4 mph - -   Mostly Cloudy
5:00 PM 80.6 °F 84.6 °F 71.6 °F 74% 29.95 in 6.2 mi ESE 10.4 mph - N/A   Mostly Cloudy
6:00 PM 80.6 °F 83.9 °F 69.8 °F 70% 29.95 in 6.2 mi ESE 11.5 mph - N/A   Partly Cloudy
7:00 PM 78.8 °F - 71.6 °F 78% 29.98 in 6.2 mi ESE 10.4 mph - N/A   Partly Cloudy
8:00 PM 79 °F - 72 °F 73% 30.00 in 25 mi SE 9.2 mph - -   Scattered Clouds
8:00 PM 78.8 °F - 71.6 °F 78% 29.98 in 6.2 mi ESE 8.1 mph - N/A   Partly Cloudy
9:00 PM 78.8 °F - 71.6 °F 78% 30.01 in 6.2 mi ESE 9.2 mph - N/A   Partly Cloudy
10:00 PM 78.8 °F - 71.6 °F 78% 30.01 in 6.2 mi SE 15.0 mph - N/A   Partly Cloudy
11:00 PM 79 °F - 72 °F 73% 30.03 in 25 mi SE 5.8 mph - -   Scattered Clouds
11:00 PM 78.8 °F - 71.6 °F 78% 30.01 in 6.2 mi SE 6.9 mph - N/A   Partly Cloudy